Location: Cussy
(47.0410°N, 4.6412°E)
Time: 16:33:30
(UTC+00:00)

USA 281 - Pass Details

Date: 30 November 2020
Orbit: 1074 x 1084 km, 106.0° (Epoch: 25 January)

Event Time Altitude Azimuth Distance (km) Brightness Sun altitude
Rises 16:26:30 0° 103° (ESE) 3,865 5.7 -5.6°
Reaches altitude 10° 16:29:36 10° 89° (E) 2,912 4.9 -6.1°
Maximum altitude 16:34:20 22° 42° (NE) 2,170 4.3 -6.8°
Drops below altitude 10° 16:39:04 10° 355° (N) 2,922 5.3 -7.5°
Sets 16:42:10 0° 341° (NNW) 3,881 6.1 -8.0°
